Temperature
17 17 16 16 16 16 16 16 16 15 15 15 15 15 15 15 15 15 15 15 15 15 15 15 14 14 14 14 14 14 14 14 14 13 13 13 13 13
17 17 16 16 16 16 16 16 15 15 15 15 15 15 15 15 15 15 15 15 15 14 14 14 14 14 14 14 14 14 14 13 13 13 13 13 13 12
17 16 16 16 16 16 16 16 15 15 15 15 15 15 14 14 14 14 14 14 14 14 14 14 14 14 14 14 13 13 13 13 13 13 13 13 12 12
17 16 16 16 16 16 16 15 15 15 15 15 14 14 14 14 14 14 14 14 14 14 14 13 13 13 13 13 13 13 13 12 12 12 12 12 12 12
16 16 16 16 16 16 16 15 15 15 14 14 14 14 14 14 14 13 13 13 13 13 13 13 13 13 13 12 12 12 12 12 12 12 12 12 11 11
16 16 16 16 16 16 15 15 15 15 14 14 14 14 13 13 13 13 13 13 13 13 13 13 12 12 12 12 12 12 12 12 11 11 11 11 11 11
16 16 16 16 16 15 15 15 15 14 14 14 14 13 13 13 13 13 13 12 12 12 12 12 12 12 12 12 11 11 11 11 11 11 11 11 10 10
16 16 16 15 15 15 15 15 14 14 14 14 14 13 13 13 13 13 12 12 12 12 12 11 11 11 11 11 11 11 11 10 10 10 10 10 10 10
16 15 15 15 15 15 15 14 14 14 14 13 13 13 13 13 12 12 12 12 12 11 11 11 11 11 11 10 10 10 10 10 10 10 9 9 9 9
15 15 15 15 15 14 14 14 14 14 13 13 13 13 13 12 12 12 12 11 11 11 11 11 11 10 10 10 10 10 9 9 9 9 9 9 8 8
15 15 15 15 14 14 14 14 13 13 13 13 13 12 12 12 12 12 11 11 11 11 10 10 10 10 10 10 10 9 9 9 9 9 8 8 8 8
15 15 14 14 14 14 13 13 13 13 12 12 12 12 12 12 11 11 11 11 11 10 10 10 10 10 9 9 9 9 9 8 8 8 8 8 7 7
14 14 14 14 13 13 13 13 12 12 12 12 12 12 11 11 11 11 11 10 10 10 10 10 10 9 9 9 9 9 8 8 8 8 7 7 7 7
14 14 14 13 13 13 12 12 12 12 11 11 11 11 11 11 11 10 10 10 10 10 9 9 9 9 9 9 8 8 8 8 8 8 7 7 7 7
14 13 13 13 12 12 12 12 12 11 11 11 11 11 10 10 10 10 10 10 9 9 9 9 9 9 8 8 8 8 8 8 8 7 7 7 7 6
13 13 12 12 12 12 11 11 11 11 11 11 10 10 10 10 10 10 10 9 9 9 9 9 9 8 8 8 8 8 8 8 7 7 7 7 7 6
13 12 12 12 12 11 11 11 11 10 10 10 10 10 10 10 9 9 9 9 9 9 9 9 8 8 8 8 8 8 8 7 7 7 7 7 6 6
12 12 12 12 11 11 11 11 10 10 10 10 9 9 9 9 9 9 9 8 8 8 8 8 8 8 8 7 8 7 7 7 7 7 7 6 6 6
12 12 11 11 11 10 10 10 10 10 9 9 9 9 8 8 8 8 8 8 8 8 8 8 8 7 7 7 8 7 7 7 7 7 6 6 6 6
11 11 11 10 10 10 10 9 9 9 9 9 8 8 8 8 8 8 8 8 7 7 7 7 7 7 7 7 7 7 7 7 7 6 6 6 6 6
10 10 10 10 10 9 9 9 9 9 8 8 8 8 8 7 7 7 7 7 7 7 7 7 7 7 7 7 6 7 7 7 6 6 6 6 6 6
9 9 9 9 9 9 9 8 8 8 8 8 7 7 7 7 7 7 7 7 7 6 6 6 6 6 6 6 6 6 6 6 6 6 6 6 6 6
9 9 9 8 8 8 8 8 8 7 7 7 7 7 7 7 7 7 6 6 6 6 6 6 6 6 6 6 6 6 6 6 6 6 6 6 6 6
Wind_Speed
4 4 4 3 3 4 4 4 4 3 3 2 1 1 1 1 1 2 2 2 2 2 3 3 2 2 2 3 2 2 2 2 3 3 4 5 5 6
2 3 3 2 2 3 3 3 4 4 3 2 2 1 1 2 3 3 3 4 4 4 4 4 3 3 3 3 2 2 2 3 4 4 4 4 4 4
2 2 2 1 1 2 2 3 3 3 3 1 1 0 1 2 2 3 4 4 4 5 5 5 4 4 4 4 4 4 5 5 5 4 4 4 4 3
2 2 1 1 1 1 2 2 2 3 3 3 1 1 1 2 2 2 3 4 4 5 5 5 5 5 5 5 5 6 6 6 5 6 5 4 4 4
3 3 2 2 2 1 2 2 2 2 2 3 2 1 1 2 2 2 3 2 3 4 5 6 6 6 6 6 6 7 7 7 7 7 6 6 5 5
3 3 3 3 3 2 2 2 2 2 3 3 2 1 1 2 2 2 1 1 1 2 4 4 5 6 6 6 7 7 7 8 8 8 7 7 6 6
3 2 2 3 3 3 2 2 3 3 3 3 3 2 2 2 2 2 2 1 1 1 1 2 2 3 3 4 5 6 7 7 7 7 7 7 7 7
3 2 2 2 2 3 3 4 4 4 4 3 3 3 3 3 3 3 3 2 1 1 1 0 1 1 1 2 3 5 6 6 6 7 7 7 7 7
3 2 2 1 1 2 3 3 3 3 4 4 4 4 4 4 5 5 4 2 2 2 2 1 0 1 1 1 3 4 5 5 5 6 6 6 6 7
3 3 3 2 2 3 3 3 2 2 2 2 3 3 3 4 5 4 4 3 2 1 2 2 1 1 1 2 3 4 4 4 4 5 5 5 5 5
1 2 2 2 3 5 4 3 2 1 2 3 3 3 3 5 7 5 4 3 2 2 2 2 1 1 1 1 3 5 5 4 4 5 6 6 5 5
1 1 2 2 3 5 4 3 2 1 1 2 2 2 3 4 7 5 5 4 2 2 3 3 2 2 1 1 2 4 5 5 6 6 6 6 6 5
2 2 1 3 4 4 4 3 3 2 2 2 2 2 2 2 3 3 4 4 3 3 3 4 3 2 2 1 1 3 4 4 5 5 6 7 7 7
3 2 2 4 3 3 3 3 4 3 2 2 2 1 1 1 1 2 3 3 3 3 5 6 3 4 3 2 2 2 3 5 5 5 5 6 8 9
3 3 4 4 3 2 2 3 3 3 2 2 1 1 1 1 1 1 1 2 1 2 4 6 4 4 4 4 3 2 2 3 5 5 5 6 6 6
3 3 5 4 3 2 2 2 2 2 2 2 2 1 1 1 1 1 1 2 2 2 3 6 6 5 4 4 4 4 3 3 4 5 6 6 7 9
4 3 2 2 2 1 1 1 1 2 2 1 2 1 1 1 1 1 1 2 2 3 2 2 4 5 5 4 4 5 4 4 4 4 4 5 7 8
5 3 2 2 2 2 2 1 1 2 2 2 2 2 2 2 1 1 1 2 2 3 3 2 2 1 2 4 7 6 5 5 4 4 5 5 7 7
4 3 3 2 2 2 2 2 2 2 2 2 2 2 2 2 2 2 2 2 2 3 3 2 2 3 4 5 5 9 6 5 4 5 6 6 7 7
2 2 2 2 2 2 2 2 1 1 1 1 1 2 2 2 2 2 2 2 3 4 4 3 4 5 6 6 5 4 10 7 6 6 6 5 5 6
2 1 1 1 1 1 1 1 1 1 0 1 1 1 2 2 2 3 3 3 3 3 4 4 5 6 4 3 4 4 5 10 10 6 5 4 5 5
1 1 1 1 1 1 1 1 1 0 0 1 1 1 1 2 2 3 3 3 3 4 5 5 4 2 3 5 6 6 5 4 7 11 11 9 5 6
1 1 1 1 1 1 0 1 1 0 1 1 1 1 2 2 2 2 3 3 3 4 4 4 3 2 3 4 6 6 6 6 4 4 6 12 15 16
Wind_Direction
219 219 223 228 217 213 202 197 200 224 240 224 229 235 180 137 152 148 138 126 113 107 111 112 118 127 138 146 149 145 149 162 170 181 195 202 203 209
221 220 222 222 215 212 210 212 211 210 225 214 217 213 161 119 99 104 106 101 90 88 88 86 96 109 116 119 124 117 129 140 143 148 158 170 184 191
209 201 206 190 202 206 202 201 202 195 216 232 188 128 122 114 92 88 90 91 87 88 87 85 93 106 114 116 114 117 122 125 127 126 129 132 136 155
205 189 205 197 203 209 201 202 198 190 195 212 193 173 143 136 110 92 83 87 88 86 89 87 90 100 109 113 114 117 119 120 118 111 108 112 123 129
197 194 201 185 209 216 204 197 190 182 183 186 188 164 137 125 111 95 83 73 81 80 84 83 85 87 94 103 109 111 112 112 111 108 107 107 111 118
197 198 200 202 209 207 200 196 182 169 163 167 163 148 132 121 133 135 108 74 67 71 74 75 80 83 87 96 102 106 111 112 110 108 108 105 106 112
201 210 218 214 197 189 187 185 171 164 161 161 158 147 153 160 173 162 162 126 85 82 86 66 76 77 76 92 103 105 108 110 113 113 110 110 111 114
206 215 226 224 204 180 170 160 158 169 179 177 179 184 193 186 165 160 161 160 193 182 160 121 113 96 88 105 109 116 116 115 117 121 120 118 118 121
209 211 221 203 154 136 134 129 126 148 174 178 186 198 194 188 172 172 180 183 196 170 161 179 163 197 210 152 138 134 133 134 134 137 135 130 127 127
203 204 197 183 161 146 134 119 105 96 134 165 186 196 196 184 181 174 165 150 119 127 164 182 183 203 201 195 175 164 157 154 157 161 161 155 148 143
175 179 178 177 169 151 141 139 130 97 85 112 130 138 141 152 157 145 147 152 180 195 180 186 180 192 211 214 203 194 187 183 180 178 178 176 173 171
172 164 172 183 172 158 158 159 167 192 139 108 96 96 122 146 159 169 172 171 170 198 183 179 170 165 210 215 213 212 210 210 205 201 195 195 194 191
195 187 172 168 170 167 164 172 184 161 133 124 108 99 107 130 160 172 179 178 183 208 180 175 175 180 200 212 223 217 209 212 212 217 214 212 209 203
198 188 169 159 159 160 158 155 147 136 131 125 118 114 123 159 187 190 190 199 210 207 180 176 180 184 186 205 224 218 218 216 209 215 218 219 220 220
188 169 158 151 144 134 151 156 150 148 151 154 181 222 230 220 181 175 169 185 206 217 186 189 194 188 197 212 216 213 218 219 212 220 221 220 222 218
167 140 133 129 126 121 120 136 154 169 179 196 217 236 210 175 188 201 212 209 223 246 221 207 207 201 213 221 217 226 219 222 220 223 228 232 228 224
145 132 132 137 136 134 138 151 164 165 181 204 207 212 202 204 243 226 218 211 225 246 246 222 222 224 225 219 225 231 231 235 233 220 221 236 236 231
138 151 163 171 183 193 197 202 198 202 206 199 208 216 218 221 234 231 221 226 248 260 261 242 201 200 226 235 219 232 237 240 240 223 221 235 246 239
144 162 169 183 193 193 197 205 218 218 205 199 215 228 230 235 238 238 233 245 261 267 263 238 213 212 237 259 240 212 226 239 235 230 227 232 247 250
152 166 178 189 198 195 195 203 211 198 199 210 219 230 232 233 237 243 242 252 264 273 274 250 233 231 238 255 261 240 216 223 228 234 236 238 251 257
155 162 172 185 195 190 184 183 189 197 219 229 234 242 241 239 245 249 252 251 254 267 273 274 265 248 243 245 260 263 246 225 224 229 227 233 246 250
158 164 145 136 157 167 169 165 167 202 272 256 262 260 253 248 255 260 259 262 260 265 273 280 282 248 225 240 258 268 271 263 241 234 228 226 234 242
164 152 133 124 123 129 150 155 168 231 264 263 262 264 261 259 262 265 268 270 275 279 282 285 287 266 253 252 261 266 268 269 263 255 251 245 244 251
Height
1542 1541 1541 1541 1541 1541 1541 1542 1542 1541 1541 1541 1541 1541 1541 1541 1541 1541 1541 1540 1540 1540 1540 1540 1540 1540 1541 1541 1541 1541 1542 1542 1543 1543 1544 1544 1545 1545
1538 1538 1537 1537 1537 1538 1538 1538 1538 1539 1538 1537 1538 1538 1538 1538 1538 1538 1538 1538 1538 1538 1537 1537 1537 1537 1538 1538 1538 1538 1538 1539 1539 1540 1540 1541 1541 1541
1535 1535 1535 1534 1534 1534 1534 1534 1534 1535 1534 1534 1534 1535 1535 1536 1536 1536 1536 1536 1535 1535 1535 1535 1535 1535 1535 1535 1535 1535 1535 1536 1536 1536 1537 1537 1538 1538
1532 1532 1532 1532 1531 1531 1531 1531 1531 1531 1531 1531 1531 1532 1532 1533 1533 1534 1534 1534 1534 1533 1533 1533 1533 1533 1533 1533 1533 1533 1533 1533 1533 1533 1534 1534 1534 1535
1530 1529 1529 1529 1529 1528 1528 1527 1527 1528 1528 1528 1528 1529 1529 1530 1531 1531 1532 1532 1532 1532 1532 1531 1531 1531 1531 1531 1531 1530 1531 1531 1531 1531 1531 1531 1532 1532
1527 1527 1527 1527 1526 1526 1525 1525 1525 1525 1525 1525 1525 1526 1526 1527 1528 1529 1529 1530 1530 1530 1530 1530 1530 1530 1529 1529 1529 1529 1529 1529 1529 1529 1529 1529 1529 1529
1525 1525 1525 1524 1524 1524 1523 1523 1523 1523 1523 1523 1523 1523 1524 1524 1525 1526 1527 1528 1528 1528 1528 1528 1528 1528 1528 1527 1527 1527 1527 1527 1527 1527 1527 1527 1527 1528
1522 1522 1522 1522 1522 1521 1521 1521 1521 1521 1521 1521 1520 1521 1521 1522 1523 1524 1525 1525 1525 1527 1526 1526 1526 1526 1526 1526 1526 1525 1525 1525 1525 1525 1525 1525 1525 1526
1520 1520 1520 1520 1519 1519 1519 1519 1518 1518 1519 1519 1519 1519 1519 1520 1521 1521 1522 1523 1523 1524 1524 1523 1524 1524 1524 1524 1524 1524 1523 1523 1523 1523 1523 1523 1523 1524
1517 1517 1518 1518 1517 1517 1517 1516 1516 1516 1516 1516 1517 1517 1517 1518 1518 1519 1520 1520 1520 1521 1521 1521 1521 1522 1522 1522 1522 1521 1521 1521 1521 1521 1521 1522 1522 1523
1515 1515 1516 1515 1515 1515 1515 1514 1514 1514 1514 1514 1515 1515 1515 1515 1516 1516 1517 1517 1517 1518 1518 1519 1519 1519 1519 1519 1519 1519 1519 1519 1519 1519 1520 1520 1521 1521
1512 1512 1513 1513 1513 1513 1513 1512 1512 1512 1512 1512 1513 1513 1513 1513 1513 1514 1514 1514 1514 1515 1515 1516 1516 1516 1516 1517 1517 1517 1517 1517 1517 1517 1517 1518 1518 1519
1509 1509 1510 1511 1511 1511 1511 1510 1510 1510 1510 1510 1510 1510 1510 1510 1510 1511 1511 1512 1512 1512 1513 1513 1513 1513 1513 1514 1514 1514 1514 1514 1514 1514 1514 1515 1515 1516
1506 1506 1507 1508 1508 1509 1508 1508 1508 1508 1508 1508 1508 1508 1508 1508 1508 1508 1508 1509 1509 1509 1509 1509 1509 1510 1510 1510 1510 1510 1511 1511 1511 1511 1511 1512 1512 1513
1502 1503 1504 1505 1506 1506 1506 1506 1506 1506 1506 1506 1506 1506 1506 1506 1506 1506 1506 1506 1506 1506 1506 1506 1506 1506 1506 1506 1506 1506 1507 1507 1507 1507 1507 1508 1508 1508
1499 1500 1501 1502 1503 1503 1504 1504 1503 1503 1503 1503 1503 1503 1503 1503 1503 1503 1502 1502 1502 1502 1502 1502 1502 1502 1502 1502 1503 1502 1503 1503 1503 1503 1503 1503 1504 1504
1496 1497 1498 1499 1499 1500 1500 1501 1501 1501 1500 1500 1500 1500 1500 1500 1500 1499 1499 1499 1499 1498 1499 1499 1498 1498 1498 1499 1498 1498 1498 1498 1498 1498 1498 1498 1499 1499
1493 1494 1495 1495 1496 1496 1497 1498 1498 1498 1497 1497 1497 1497 1497 1497 1497 1496 1496 1495 1495 1495 1495 1495 1495 1494 1495 1494 1495 1494 1494 1494 1494 1494 1493 1493 1493 1494
1490 1491 1491 1492 1492 1493 1494 1494 1494 1495 1494 1494 1494 1494 1494 1493 1493 1493 1492 1492 1491 1491 1491 1491 1491 1490 1490 1489 1489 1490 1489 1489 1489 1488 1488 1488 1488 1489
1487 1488 1488 1489 1489 1490 1490 1491 1491 1491 1491 1491 1490 1490 1490 1490 1489 1489 1488 1488 1488 1487 1487 1487 1486 1486 1486 1485 1485 1484 1485 1484 1484 1483 1483 1483 1483 1484
1484 1485 1485 1486 1486 1486 1486 1487 1487 1487 1487 1487 1487 1487 1486 1486 1486 1485 1484 1484 1484 1483 1483 1482 1482 1482 1481 1481 1480 1479 1479 1479 1479 1478 1478 1478 1478 1478
1482 1482 1482 1482 1483 1483 1483 1483 1483 1483 1483 1483 1483 1483 1482 1482 1482 1481 1481 1480 1479 1479 1478 1478 1478 1477 1476 1475 1475 1474 1474 1474 1474 1473 1473 1473 1472 1471
1480 1480 1479 1479 1479 1479 1479 1479 1479 1479 1479 1479 1479 1479 1478 1478 1478 1478 1477 1476 1476 1475 1474 1474 1473 1472 1472 1471 1470 1469 1469 1468 1468 1467 1467 1468 1468 1468